Tracking 29892 objects as of 21-Nov-2024
HD Live streaming from Space Station
objects crossing your sky now

SL-3 DEB

Track SL-3 DEB now!
10-day predictions


NORAD ID: 26848
Int'l Code: 1975-124C
Perigee: 857.6 km
Apogee: 876.0 km
Inclination: 81.3 °
Period: 102.1 minutes
Semi major axis: 7237 km
RCS: 0.0153 m2 (small)
Launch date: December 25, 1975
Source: Commonwealth of Independent States (former USSR) (CIS)
Launch site: PLESETSK MISSILE AND SPACE COMPLEX (PKMTR)

Note: This is SATELLITE DEBRIS
Your satellite tracking list
Your tracking list is empty




NASA's NSSDC Master Catalog

Two Line Element Set (TLE):
1 26848U 75124C   24325.54680909  .00000242  00000-0  13010-3 0  9990
2 26848  81.2791  50.5441 0012693 143.1368 217.0677 14.09920881278520
Source of the keplerian elements: AFSPC